Weather History for West Palm Beach, FL

Change the Weather History Date:

Sunday, March 16, 2014

  Actual Average Record
Temperature  
Mean Temperature 77 °F 70 °F  
Max Temperature 83 °F 79 °F 90 °F (1956)
Min Temperature 70 °F 62 °F 43 °F (1988)
Degree Days  
Heating Degree Days 0 1  
Month to date heating degree days 2 16  
Since 1 July heating degree days 117 221  
Cooling Degree Days 12 6  
Month to date cooling degree days 93 94  
Year to date cooling degree days 439 329  
Growing Degree Days 26 (Base 50)    
Moisture  
Dew Point 61 °F    
Average Humidity 62    
Maximum Humidity 73    
Minimum Humidity 50    
Precipitation  
Precipitation 0.00 in 0.17 in 2.42 in (1947)
Month to date precipitation 0.44 2.30  
Year to date precipitation 11.92 8.25  
Snow  
Snow 0.00 in - - ()
Month to date snowfall 0.0  
Since 1 July snowfall 0.0  
Snow Depth 0.00 in    
Sea Level Pressure  
Sea Level Pressure 29.93 in    
Wind  
Wind Speed 14 mph (SSE)    
Max Wind Speed 26 mph    
Max Gust Speed 35 mph    
Visibility 10 miles    
Events      
T = Trace of Precipitation, MM = Missing Value Source: NWS Daily Summary

Daily Weather History Graph

Daily Weather History Graph

Search for Another Location

Airport:

Trip Planner

Search our weather history database for the weather conditions in past years. The results will help you decide how hot, cold, wet, or windy it might be!

Date:

Astronomy

Mar. 16, 2014 Rise Set
Actual Time 7:28 AM EDT 7:29 PM EDT
Civil Twilight 7:05 AM EDT 7:52 PM EDT
Nautical Twilight 6:38 AM EDT 8:19 PM EDT
Astronomical Twilight 6:11 AM EDT 8:46 PM EDT
Moon 7:41 PM EDT (3/16) 7:13 AM EDT (3/16)
Length of Visible Light 12h 47m
Length of Day
12h 01m
Full, 100% of the Moon is Illuminated
Mar 16
Full
Mar 16
Full
Mar 23
Last Quarter
Mar 30
New
Apr 7
First Quarter

Hourly Weather History & Observations

Time (EDT) Temp. Heat Index Dew Point Humidity Pressure Visibility Wind Dir Wind Speed Gust Speed Precip Events Conditions
12:53 AM 70.0 °F - 57.0 °F 63% 30.04 in 10.0 mi SE 5.8 mph - N/A   Partly Cloudy
1:53 AM 70.0 °F - 57.9 °F 65% 30.03 in 10.0 mi SSE 5.8 mph - N/A   Partly Cloudy
2:53 AM 71.1 °F - 57.9 °F 63% 30.01 in 10.0 mi SSE 8.1 mph - N/A   Partly Cloudy
3:53 AM 71.1 °F - 57.9 °F 63% 29.99 in 10.0 mi SE 8.1 mph - N/A   Partly Cloudy
4:53 AM 71.1 °F - 57.9 °F 63% 29.98 in 10.0 mi SSE 9.2 mph - N/A   Partly Cloudy
5:53 AM 71.1 °F - 57.0 °F 61% 29.98 in 10.0 mi SSE 10.4 mph - N/A   Scattered Clouds
6:53 AM 71.1 °F - 57.0 °F 61% 29.99 in 10.0 mi SSE 8.1 mph - N/A   Mostly Cloudy
7:53 AM 71.1 °F - 57.0 °F 61% 30.00 in 10.0 mi SSE 9.2 mph - N/A   Scattered Clouds
8:53 AM 73.9 °F - 57.9 °F 57% 30.00 in 10.0 mi SSE 16.1 mph 21.9 mph N/A   Scattered Clouds
9:53 AM 77.0 °F - 57.0 °F 50% 30.00 in 10.0 mi SSE 18.4 mph 27.6 mph N/A   Scattered Clouds
10:53 AM 78.1 °F - 59.0 °F 52% 29.98 in 10.0 mi SSE 18.4 mph 32.2 mph N/A   Scattered Clouds
11:53 AM 80.1 °F 81.2 °F 62.1 °F 54% 29.97 in 10.0 mi SSE 20.7 mph 27.6 mph N/A   Mostly Cloudy
12:53 PM 79.0 °F - 64.0 °F 60% 29.94 in 10.0 mi SSE 18.4 mph 28.8 mph N/A   Mostly Cloudy
1:53 PM 80.1 °F 81.7 °F 64.0 °F 58% 29.92 in 10.0 mi SSE 18.4 mph 27.6 mph N/A   Mostly Cloudy
2:53 PM 81.0 °F 82.2 °F 63.0 °F 54% 29.88 in 10.0 mi SSE 19.6 mph 32.2 mph N/A   Scattered Clouds
3:53 PM 81.0 °F 82.2 °F 63.0 °F 54% 29.86 in 10.0 mi SSE 26.5 mph 31.1 mph N/A   Scattered Clouds
4:53 PM 79.0 °F - 63.0 °F 58% 29.83 in 10.0 mi SSE 23.0 mph 28.8 mph N/A   Mostly Cloudy
5:53 PM 78.1 °F - 63.0 °F 60% 29.83 in 10.0 mi SSE 18.4 mph 27.6 mph N/A   Mostly Cloudy
6:53 PM 77.0 °F - 63.0 °F 62% 29.84 in 10.0 mi SSE 18.4 mph 26.5 mph N/A   Mostly Cloudy
7:53 PM 75.9 °F - 63.0 °F 64% 29.85 in 10.0 mi South 16.1 mph 21.9 mph N/A   Mostly Cloudy
8:53 PM 75.0 °F - 64.9 °F 71% 29.86 in 10.0 mi SSE 11.5 mph - N/A   Mostly Cloudy
9:53 PM 73.9 °F - 63.0 °F 68% 29.86 in 10.0 mi SSE 11.5 mph - N/A   Scattered Clouds
10:53 PM 73.9 °F - 64.0 °F 71% 29.85 in 10.0 mi SSE 9.2 mph - N/A   Partly Cloudy
11:53 PM 73.9 °F - 64.9 °F 73% 29.85 in 10.0 mi SSE 11.5 mph - N/A   Partly Cloudy